Vorticity
6 6 6 6 7 7 7 7 8 8 9 9 9 9 10 11 11 11 11 12 12 11 11 11 11 11 11 11 12 12 13 13 14 13 13 11 9 7 6 6 7 7 6 5 3 2 1 0 0 0 0 1 1 1 1 1 2 3 3 4 6 7 9 10 11 12 14 14 14
6 6 6 7 7 7 7 7 8 8 9 9 10 10 10 12 11 11 11 12 11 10 10 9 9 10 10 11 12 12 13 13 13 11 10 8 6 6 6 6 6 4 3 1 0 -0 -1 -1 -1 -0 -0 0 0 1 1 1 2 3 4 4 6 8 9 11 12 13 14 14 14
6 6 6 7 7 7 7 7 8 8 9 9 10 10 11 12 11 11 10 10 9 9 9 9 9 10 11 12 12 12 12 12 11 9 7 6 5 5 5 4 3 1 -0 -1 -1 -1 -1 -1 -1 -0 0 1 1 1 2 2 3 4 4 5 7 8 10 11 12 13 14 14 13
6 6 6 6 7 7 7 7 7 8 9 9 10 10 11 11 11 10 8 7 8 8 9 9 10 10 11 12 11 11 10 10 8 7 6 5 5 4 3 1 -0 -1 -2 -2 -1 -1 -1 -1 -0 0 1 2 2 3 4 4 4 5 5 6 8 9 10 11 12 13 13 13 12
5 5 5 6 6 6 6 7 7 8 9 9 10 11 12 12 11 9 8 8 8 8 9 9 10 11 11 11 10 10 9 8 7 6 5 5 3 2 1 -0 -1 -1 -1 -1 -1 -1 -0 0 1 2 3 4 5 5 6 6 6 6 7 7 8 9 10 12 12 13 12 12 11
5 5 5 5 6 6 6 7 7 8 8 9 10 11 12 12 11 9 8 8 8 8 9 9 10 10 10 10 9 8 8 6 5 5 4 3 2 1 -0 -1 -1 -1 -1 -1 -0 0 1 2 3 4 5 7 7 7 7 7 6 7 7 8 9 10 11 12 12 12 12 11 10
5 5 5 5 6 6 6 6 7 8 9 9 11 12 12 11 10 9 7 7 7 8 9 10 10 10 9 9 8 7 7 5 4 4 3 2 1 0 -0 -1 -1 -1 -1 -0 0 1 2 3 5 7 8 9 9 8 8 7 7 7 7 8 8 9 10 11 11 11 11 10 9
5 4 4 5 6 6 6 6 7 8 9 11 12 12 11 10 9 7 6 7 7 8 9 10 10 9 9 8 7 7 6 5 4 2 2 1 1 -0 -1 -1 -1 -1 -1 0 1 2 3 5 7 9 9 9 9 8 8 7 7 7 7 8 8 9 10 11 11 10 9 9 8
5 4 4 5 5 6 6 6 7 9 10 11 12 12 11 9 7 6 6 6 7 8 9 9 9 8 7 7 6 6 5 4 3 2 1 1 0 -0 -1 -1 -1 -1 -0 1 1 3 5 7 8 9 9 9 9 9 8 8 7 7 7 7 8 8 9 10 10 10 9 8 8
4 4 4 4 5 6 6 6 8 9 11 11 12 11 10 9 6 5 5 6 7 8 9 8 8 7 6 6 5 5 4 3 2 2 1 0 -0 -0 -1 -1 -1 0 1 1 2 3 5 6 7 8 8 9 9 9 9 8 8 8 8 7 8 8 9 10 10 9 9 8 8
4 3 3 3 5 5 6 6 8 9 11 12 11 11 10 8 6 5 5 6 7 7 8 8 7 6 5 5 5 4 4 3 2 1 1 0 -0 -0 -1 -0 0 1 2 3 3 3 4 5 6 7 8 8 8 9 9 8 8 8 8 8 8 9 9 9 9 9 9 8 9
3 3 2 2 4 5 6 7 8 9 11 12 11 11 10 8 6 4 4 5 6 7 7 7 6 5 5 5 5 4 3 2 1 1 0 0 0 -0 -0 0 1 2 3 3 3 3 3 4 5 6 6 7 7 8 8 7 8 8 8 8 8 9 9 9 9 9 9 9 9
3 3 2 2 4 5 6 7 8 10 11 12 11 11 9 7 5 4 4 4 6 6 7 6 5 5 5 5 5 4 3 2 1 1 1 1 1 1 1 1 2 3 3 3 3 3 3 4 4 4 5 5 6 6 6 6 7 7 8 8 9 9 9 9 9 8 8 8 9
4 3 3 2 3 5 6 7 8 10 11 12 11 11 9 7 5 4 3 4 5 6 6 6 5 5 5 5 5 4 4 3 2 1 1 1 2 2 2 3 3 4 4 4 4 4 3 3 3 3 3 4 4 5 5 5 6 7 7 8 9 9 9 9 8 8 8 8 9
5 4 3 3 3 4 5 7 8 10 12 13 12 10 9 7 5 4 3 4 5 5 6 6 6 5 5 4 4 4 4 3 3 2 2 2 3 3 3 4 5 5 5 5 5 4 4 3 3 3 3 3 3 4 4 5 6 6 7 8 9 9 9 8 8 8 8 9 10
8 6 5 3 3 3 4 6 8 10 12 13 12 11 10 8 6 4 3 3 4 5 5 6 6 6 5 4 4 4 4 4 4 3 3 4 4 4 5 6 6 7 6 6 6 5 5 4 3 3 2 2 3 4 4 5 6 7 7 8 9 9 9 8 8 8 8 9 10
12 10 7 5 4 4 4 5 7 10 12 14 12 11 10 8 6 4 3 3 4 4 5 6 6 6 6 5 4 4 4 5 4 4 4 5 5 6 7 8 8 8 7 7 6 5 4 4 3 3 2 2 2 3 4 5 6 7 8 9 10 10 10 9 9 8 9 9 11
17 15 11 9 7 5 4 4 7 10 12 14 13 12 10 8 7 5 3 3 3 4 5 5 6 6 6 5 5 5 4 5 5 5 5 5 6 6 7 8 8 8 7 6 5 4 3 3 3 2 2 1 2 2 3 5 6 6 7 9 10 11 11 10 9 9 9 10 11
20 19 17 13 10 7 5 4 6 9 12 14 13 12 10 9 7 5 3 3 3 3 4 4 5 5 5 4 4 5 5 5 5 5 5 5 5 5 5 5 5 5 5 4 3 2 2 2 2 1 1 1 1 2 3 4 5 6 7 9 10 11 12 11 10 10 10 10 11
20 21 21 18 14 11 8 5 5 8 11 13 14 13 11 9 8 6 4 3 3 3 3 2 2 3 4 4 4 4 4 4 4 4 4 4 4 3 3 2 2 1 1 1 0 0 1 1 1 1 1 0 1 2 3 4 5 7 8 10 11 12 12 12 11 10 11 11 11
16 20 22 21 18 14 11 7 6 7 10 13 14 14 12 10 9 7 5 3 2 2 2 1 0 0 1 2 2 3 3 3 4 4 4 3 3 2 1 -0 -1 -2 -2 -2 -2 -1 -0 0 0 0 0 -0 -0 1 2 3 5 7 9 11 13 13 13 12 11 11 12 12 12
13 16 19 21 20 17 14 10 7 7 9 12 14 14 13 11 9 8 5 3 2 1 1 -0 -2 -2 -3 -2 -1 -1 0 1 2 3 3 3 2 2 1 -1 -2 -4 -4 -4 -3 -2 -1 -0 -0 -1 -1 -1 -1 -0 1 2 3 6 9 12 15 16 15 12 11 11 12 13 14
12 13 16 19 20 19 17 13 10 8 9 11 14 15 15 12 10 8 6 5 3 2 0 -1 -2 -4 -5 -5 -4 -3 -3 -2 -1 0 1 2 2 2 1 -1 -3 -5 -5 -5 -3 -2 -1 -2 -2 -2 -2 -3 -1 -0 0 0 1 2 5 10 15 18 17 13 10 9 10 13 15
13 14 15 17 16 17 17 15 12 10 9 10 13 15 15 14 11 9 8 6 4 2 1 -0 -2 -4 -5 -6 -5 -5 -4 -4 -3 -2 -0 2 2 2 1 -1 -3 -5 -5 -4 -2 -2 -2 -3 -3 -4 -4 -3 -1 1 1 1 1 1 2 6 14 19 19 15 10 9 9 12 14
13 15 17 19 14 12 11 14 12 11 10 10 12 14 15 15 13 11 9 7 5 3 2 1 -1 -3 -5 -5 -5 -5 -5 -4 -3 -2 -0 1 1 2 1 -1 -3 -4 -4 -3 -2 -2 -3 -4 -3 -3 -4 -2 -0 2 3 3 3 1 1 2 13 20 21 15 10 8 8 10 12
12 15 17 19 19 13 9 11 12 11 11 11 11 13 14 15 14 13 11 9 6 4 2 1 -1 -2 -4 -4 -4 -4 -4 -3 -2 -1 -1 -0 0 1 0 -1 -2 -3 -2 -1 -1 -1 -2 -2 -1 -1 -0 0 1 2 3 5 4 2 -0 1 14 21 21 12 8 6 8 11 13
10 14 17 19 20 16 11 8 10 11 11 11 11 12 13 14 14 14 13 11 8 5 3 2 -0 -2 -3 -3 -3 -3 -3 -2 -1 -1 -1 -1 -0 0 0 -1 -2 -1 -0 0 -0 -1 -0 1 2 3 3 2 2 2 2 3 3 0 -1 3 16 21 19 9 4 4 7 12 16
6 11 16 19 19 17 14 10 10 10 10 11 11 11 12 13 14 15 15 14 10 7 5 2 -0 -1 -2 -2 -3 -2 -2 -1 -1 -1 -1 -1 -0 0 0 -1 -1 0 1 -0 -0 -0 0 1 2 3 3 3 2 1 1 1 1 -1 0 8 19 20 15 6 2 5 9 14 17
4 9 13 18 18 16 13 11 10 9 9 10 11 11 11 12 13 15 16 16 13 10 7 2 0 -1 -2 -2 -2 -2 -1 -1 -1 -1 -1 -0 0 1 1 -0 0 1 1 -1 -1 -1 0 1 2 3 4 5 3 1 0 0 0 2 8 19 24 20 12 4 4 9 13 17 17
3 7 11 15 16 14 12 9 9 8 9 10 11 12 12 11 12 13 15 18 17 14 9 4 1 -0 -1 -1 -1 -1 -1 -1 -1 -1 -1 -1 0 1 1 1 1 1 -0 -1 -0 -0 -0 0 1 3 5 6 3 1 -1 -1 1 8 17 27 23 16 9 5 8 12 16 18 18
-3 2 7 12 15 15 13 10 9 9 10 11 12 13 12 11 11 12 14 17 18 16 12 8 5 3 1 1 0 -0 -1 -1 -1 -1 -1 -0 0 1 2 2 2 2 1 -0 0 1 0 -0 2 5 7 6 2 -1 -2 -1 4 13 22 25 18 12 9 8 11 15 18 19 18
-2 1 5 10 13 15 14 12 10 10 10 11 12 13 13 13 13 12 13 14 16 16 15 12 10 7 5 3 1 -0 -0 -0 -1 -1 -0 -0 1 2 2 2 2 2 2 2 2 2 2 2 5 7 7 3 -2 -3 -2 2 10 18 22 19 13 11 10 11 14 18 20 20 17
1 3 6 10 12 14 16 17 15 13 11 11 9 10 13 15 14 13 11 11 13 15 15 14 13 12 10 7 4 2 1 0 1 1 1 1 1 2 2 2 2 2 2 2 2 3 5 6 8 8 5 -1 -4 -3 1 9 17 20 18 13 11 11 13 15 18 19 20 17 14
-1 2 5 9 13 14 14 14 12 11 10 11 12 12 13 15 15 13 11 10 11 12 14 15 15 14 13 11 9 7 5 3 3 2 2 2 2 2 2 3 3 2 2 2 3 4 6 8 8 4 0 -4 -2 3 10 18 20 18 14 11 12 14 17 19 20 19 17 14 12
-4 -3 -0 4 10 14 15 14 12 10 9 9 11 13 14 16 15 14 12 9 9 11 12 14 15 15 15 13 11 10 8 7 5 4 4 4 3 3 3 4 4 4 3 3 3 4 6 7 4 1 -1 -0 6 13 18 21 18 14 12 11 14 17 20 20 19 17 15 12 9
-5 -6 -5 -4 2 8 14 16 13 12 11 12 13 14 16 17 16 15 13 11 10 10 11 12 13 14 14 13 12 10 9 8 7 6 6 5 4 4 4 5 5 4 4 3 5 6 6 5 3 2 4 9 15 19 19 17 13 11 11 13 17 20 21 20 17 15 12 10 7
-3 -5 -6 -8 -7 -3 4 10 12 13 14 16 17 18 19 19 18 17 15 13 11 12 12 13 13 14 14 14 13 12 11 9 8 7 6 6 5 5 5 5 5 4 4 5 6 7 8 7 7 9 12 16 18 17 14 11 8 9 13 19 20 21 20 18 15 13 10 7 5
1 -1 -3 -6 -8 -8 -6 -2 3 7 11 15 18 20 21 21 20 19 18 17 15 14 14 14 15 15 15 15 14 13 12 11 9 8 7 6 6 5 5 5 6 6 7 7 9 10 11 12 13 15 17 17 14 11 7 3 6 13 19 23 21 20 18 16 14 11 8 5 4
4 3 2 -0 -1 -1 -1 -1 -1 -1 1 7 13 18 20 22 21 21 21 21 20 19 18 17 16 16 15 15 14 13 13 12 10 9 7 7 6 6 6 6 8 9 10 11 12 14 15 16 15 15 13 10 7 3 2 4 13 20 25 24 20 18 16 14 11 8 5 3 2
5 5 4 3 3 5 9 12 10 3 -3 -3 6 13 17 20 20 21 21 22 22 21 20 19 18 17 16 15 14 13 12 12 11 10 9 8 8 8 8 9 11 12 13 15 16 16 16 13 9 6 3 1 0 2 7 15 22 26 25 22 18 15 13 12 9 6 3 1 2
6 5 5 3 1 0 2 9 16 14 7 -2 3 8 12 14 15 17 18 20 20 21 20 19 18 17 16 15 14 13 13 12 12 11 11 10 10 11 11 12 14 16 17 17 16 12 7 2 -2 -3 -3 -0 4 11 18 25 28 26 23 19 16 13 10 8 7 5 2 1 3
Height
3034 3035 3037 3039 3040 3042 3043 3045 3046 3047 3049 3050 3051 3052 3053 3055 3056 3057 3058 3060 3061 3063 3064 3065 3066 3067 3068 3070 3071 3072 3074 3075 3076 3078 3080 3081 3083 3084 3085 3086 3087 3088 3088 3089 3090 3090 3091 3092 3093 3093 3094 3095 3095 3096 3097 3097 3097 3098 3098 3098 3098 3098 3098 3098 3098 3098 3098 3098 3099
3034 3035 3036 3038 3040 3041 3042 3044 3045 3046 3048 3049 3050 3052 3053 3054 3055 3056 3058 3059 3061 3062 3063 3065 3065 3066 3068 3069 3070 3072 3073 3075 3076 3078 3080 3081 3083 3084 3085 3085 3086 3087 3088 3088 3089 3090 3090 3091 3092 3093 3094 3094 3095 3095 3096 3096 3097 3097 3097 3097 3097 3097 3097 3097 3097 3097 3097 3098 3098
3033 3035 3036 3038 3039 3040 3042 3043 3045 3046 3047 3048 3050 3051 3052 3053 3055 3056 3057 3059 3060 3061 3063 3064 3065 3066 3067 3069 3070 3071 3073 3074 3076 3078 3080 3081 3083 3084 3084 3085 3085 3086 3087 3088 3088 3089 3090 3091 3092 3093 3093 3094 3094 3095 3095 3096 3096 3096 3096 3096 3096 3096 3096 3096 3096 3096 3097 3097 3097
3033 3034 3036 3037 3039 3040 3041 3043 3044 3045 3047 3048 3049 3050 3051 3053 3054 3055 3057 3058 3060 3061 3062 3063 3065 3066 3067 3069 3070 3071 3073 3074 3076 3078 3080 3081 3082 3083 3084 3084 3085 3086 3086 3087 3088 3089 3090 3090 3091 3092 3093 3093 3094 3094 3095 3095 3095 3095 3095 3095 3095 3095 3095 3095 3095 3095 3096 3096 3096
3032 3034 3035 3037 3038 3040 3041 3042 3044 3045 3046 3047 3048 3050 3051 3052 3054 3055 3056 3057 3059 3060 3061 3063 3065 3066 3067 3069 3070 3071 3073 3075 3076 3078 3080 3081 3082 3083 3083 3084 3085 3085 3086 3087 3088 3088 3089 3090 3091 3092 3092 3093 3093 3094 3094 3095 3095 3095 3095 3095 3095 3095 3095 3095 3095 3095 3095 3095 3095
3032 3033 3035 3036 3038 3039 3040 3042 3043 3044 3045 3047 3048 3049 3050 3052 3053 3054 3055 3057 3058 3060 3061 3063 3064 3066 3067 3069 3070 3071 3073 3075 3076 3078 3079 3080 3081 3082 3083 3083 3084 3085 3085 3086 3087 3088 3089 3090 3090 3091 3092 3092 3093 3093 3094 3094 3094 3094 3094 3094 3094 3094 3094 3094 3094 3094 3094 3094 3094
3031 3033 3035 3036 3037 3039 3040 3041 3042 3044 3045 3046 3048 3049 3050 3052 3053 3054 3055 3057 3058 3060 3061 3062 3064 3065 3067 3069 3070 3072 3073 3075 3076 3078 3079 3080 3080 3081 3082 3083 3084 3085 3085 3086 3087 3088 3089 3090 3090 3091 3091 3092 3092 3092 3093 3093 3093 3093 3093 3093 3093 3093 3093 3093 3093 3092 3092 3092 3092
3031 3033 3034 3035 3037 3038 3039 3040 3042 3043 3045 3046 3047 3049 3050 3051 3053 3054 3055 3056 3058 3059 3061 3062 3064 3065 3067 3069 3070 3072 3073 3075 3076 3077 3078 3079 3080 3081 3082 3082 3083 3084 3085 3085 3086 3088 3088 3089 3090 3090 3090 3091 3091 3092 3092 3092 3093 3093 3093 3093 3092 3092 3092 3092 3092 3091 3091 3091 3091
3031 3032 3034 3035 3036 3037 3039 3040 3041 3043 3044 3045 3047 3048 3050 3051 3052 3054 3055 3056 3057 3059 3061 3062 3064 3065 3067 3069 3070 3071 3073 3074 3075 3076 3077 3078 3079 3080 3081 3082 3083 3084 3085 3085 3086 3087 3088 3089 3089 3090 3090 3090 3091 3091 3092 3092 3092 3092 3092 3092 3091 3091 3091 3091 3090 3090 3090 3090 3090
3030 3032 3033 3034 3035 3037 3038 3039 3041 3042 3043 3045 3046 3048 3049 3050 3052 3053 3054 3055 3057 3059 3060 3062 3064 3065 3067 3068 3070 3071 3072 3074 3075 3076 3077 3078 3079 3080 3080 3081 3082 3083 3084 3085 3086 3087 3088 3088 3089 3089 3089 3090 3090 3091 3091 3091 3091 3091 3091 3091 3091 3090 3090 3090 3090 3089 3089 3089 3088
3030 3031 3032 3034 3035 3036 3037 3039 3040 3041 3043 3044 3045 3047 3049 3050 3051 3053 3054 3055 3057 3058 3060 3062 3063 3065 3066 3068 3069 3070 3072 3073 3074 3075 3076 3077 3078 3079 3080 3081 3082 3083 3084 3085 3085 3086 3087 3087 3088 3088 3089 3089 3090 3090 3090 3090 3090 3090 3090 3090 3090 3090 3089 3089 3089 3088 3088 3088 3087
3030 3031 3032 3033 3034 3035 3036 3038 3039 3040 3042 3043 3045 3046 3048 3050 3051 3052 3053 3055 3056 3058 3060 3061 3063 3064 3065 3067 3068 3070 3071 3072 3073 3075 3075 3076 3078 3079 3080 3080 3081 3082 3083 3084 3085 3086 3086 3087 3087 3088 3088 3089 3089 3090 3090 3090 3090 3090 3089 3089 3089 3089 3088 3088 3088 3087 3087 3087 3086
3029 3030 3031 3032 3033 3035 3036 3037 3039 3040 3041 3043 3044 3046 3047 3049 3050 3052 3053 3054 3056 3057 3059 3060 3062 3063 3065 3066 3068 3069 3070 3072 3073 3074 3075 3076 3077 3078 3079 3080 3081 3082 3083 3084 3085 3085 3086 3086 3087 3087 3088 3088 3088 3089 3089 3089 3089 3089 3088 3088 3088 3088 3087 3087 3086 3086 3086 3086 3085
3028 3029 3030 3031 3033 3034 3035 3036 3038 3039 3040 3042 3044 3045 3047 3048 3050 3051 3052 3054 3055 3057 3058 3060 3061 3063 3064 3065 3067 3068 3070 3071 3072 3073 3074 3075 3076 3078 3079 3080 3080 3081 3082 3083 3084 3085 3085 3086 3086 3087 3087 3087 3088 3088 3088 3088 3088 3088 3087 3087 3087 3086 3086 3086 3085 3085 3085 3085 3084
3027 3029 3030 3031 3032 3033 3034 3035 3037 3038 3040 3041 3043 3045 3046 3048 3049 3050 3052 3053 3055 3056 3057 3059 3060 3062 3063 3065 3066 3068 3069 3070 3071 3073 3074 3075 3076 3077 3078 3079 3080 3081 3082 3083 3083 3084 3085 3085 3085 3086 3086 3087 3087 3087 3087 3087 3087 3086 3086 3086 3086 3085 3085 3085 3084 3084 3083 3083 3083
3026 3028 3029 3030 3031 3032 3034 3035 3036 3038 3039 3040 3042 3044 3045 3047 3049 3050 3051 3053 3054 3055 3057 3058 3060 3061 3063 3064 3065 3067 3068 3070 3071 3072 3073 3074 3075 3076 3077 3078 3079 3080 3081 3082 3083 3083 3084 3085 3085 3085 3086 3086 3086 3086 3086 3086 3085 3085 3085 3085 3085 3084 3084 3083 3083 3083 3082 3082 3081
3025 3026 3028 3029 3030 3031 3033 3034 3035 3037 3038 3040 3041 3043 3045 3046 3048 3050 3051 3052 3054 3055 3056 3058 3059 3060 3062 3063 3065 3066 3067 3069 3070 3071 3072 3073 3075 3075 3076 3077 3078 3080 3080 3081 3082 3083 3083 3084 3084 3085 3085 3085 3085 3085 3085 3085 3085 3084 3084 3084 3084 3083 3083 3082 3082 3081 3081 3080 3080
3024 3025 3027 3028 3029 3030 3032 3033 3035 3036 3038 3039 3041 3042 3044 3045 3047 3049 3050 3052 3053 3055 3056 3057 3059 3060 3061 3063 3064 3065 3067 3068 3069 3070 3071 3073 3074 3075 3076 3077 3078 3079 3080 3080 3081 3082 3082 3083 3083 3084 3084 3084 3084 3084 3084 3084 3083 3083 3083 3083 3083 3082 3082 3081 3081 3080 3080 3080 3079
3024 3025 3026 3027 3028 3030 3031 3032 3034 3035 3037 3038 3040 3041 3043 3045 3046 3048 3050 3051 3053 3054 3055 3057 3058 3059 3060 3062 3063 3065 3066 3067 3069 3070 3071 3072 3073 3074 3075 3076 3077 3078 3079 3080 3080 3081 3082 3082 3082 3083 3083 3083 3083 3083 3083 3082 3082 3082 3082 3082 3081 3081 3081 3081 3080 3080 3079 3079 3078
3023 3024 3025 3026 3027 3029 3030 3031 3033 3034 3036 3037 3039 3040 3042 3044 3045 3047 3049 3050 3052 3053 3055 3056 3057 3058 3060 3061 3063 3064 3065 3066 3068 3069 3070 3071 3072 3073 3074 3075 3076 3077 3078 3079 3080 3080 3081 3081 3081 3081 3081 3081 3081 3081 3081 3081 3081 3081 3081 3081 3080 3080 3080 3080 3080 3079 3079 3078 3078
3022 3023 3024 3025 3026 3028 3029 3030 3032 3033 3035 3036 3038 3040 3041 3043 3045 3046 3048 3050 3051 3053 3054 3055 3056 3058 3059 3060 3062 3063 3064 3065 3067 3068 3069 3070 3071 3072 3073 3075 3075 3076 3077 3078 3079 3080 3080 3080 3080 3080 3080 3080 3080 3080 3080 3080 3080 3080 3080 3080 3079 3079 3079 3079 3079 3078 3078 3077 3077
3022 3022 3023 3025 3025 3027 3028 3030 3031 3032 3034 3035 3037 3039 3040 3042 3043 3045 3047 3049 3050 3052 3053 3054 3055 3057 3058 3060 3061 3062 3063 3065 3066 3067 3068 3069 3070 3071 3073 3074 3075 3076 3076 3077 3078 3078 3079 3079 3079 3079 3079 3079 3079 3079 3079 3079 3079 3079 3079 3079 3078 3078 3078 3078 3077 3077 3077 3076 3076
3021 3022 3023 3024 3025 3026 3027 3028 3030 3031 3033 3034 3036 3037 3039 3041 3042 3044 3046 3047 3049 3050 3051 3053 3055 3056 3057 3059 3060 3061 3062 3064 3065 3066 3067 3068 3069 3070 3072 3073 3074 3075 3075 3076 3077 3077 3077 3078 3078 3078 3078 3078 3078 3078 3078 3078 3078 3077 3077 3077 3077 3077 3077 3076 3076 3076 3076 3075 3075
3020 3021 3022 3023 3024 3025 3026 3027 3029 3030 3032 3033 3035 3036 3038 3040 3041 3043 3045 3046 3048 3049 3050 3052 3053 3055 3056 3057 3059 3060 3061 3062 3063 3065 3065 3067 3068 3070 3071 3072 3073 3074 3075 3075 3075 3076 3076 3076 3076 3077 3077 3077 3077 3077 3077 3077 3076 3076 3076 3076 3076 3076 3076 3075 3075 3075 3075 3075 3075
3019 3020 3020 3022 3022 3023 3025 3026 3027 3029 3030 3032 3034 3035 3037 3038 3040 3041 3043 3045 3046 3048 3049 3050 3052 3054 3055 3056 3057 3058 3060 3061 3062 3063 3064 3066 3068 3069 3070 3071 3072 3073 3073 3074 3074 3075 3075 3075 3075 3075 3076 3076 3076 3076 3076 3076 3075 3075 3075 3075 3075 3075 3075 3074 3074 3073 3073 3073 3073
3019 3019 3020 3020 3021 3022 3023 3025 3026 3028 3029 3031 3032 3034 3035 3037 3039 3040 3042 3043 3045 3046 3047 3049 3051 3052 3053 3054 3055 3057 3058 3059 3060 3062 3064 3065 3067 3068 3069 3070 3071 3071 3072 3073 3073 3073 3074 3074 3074 3075 3075 3075 3075 3075 3075 3075 3075 3075 3075 3075 3075 3074 3074 3073 3073 3072 3072 3072 3072
3018 3018 3019 3019 3020 3021 3022 3024 3025 3026 3028 3030 3031 3033 3034 3036 3037 3039 3040 3042 3043 3045 3046 3048 3049 3050 3051 3053 3054 3055 3056 3057 3059 3061 3063 3065 3066 3067 3068 3069 3070 3070 3071 3071 3071 3072 3072 3073 3073 3073 3074 3074 3074 3074 3073 3073 3073 3074 3074 3074 3073 3073 3073 3072 3071 3071 3070 3070 3070
3017 3018 3018 3019 3019 3020 3022 3023 3024 3025 3027 3028 3030 3031 3033 3034 3036 3037 3039 3040 3041 3043 3044 3046 3047 3049 3050 3051 3052 3053 3055 3056 3058 3060 3062 3063 3065 3065 3066 3067 3068 3069 3069 3069 3070 3070 3071 3071 3072 3072 3072 3072 3072 3072 3072 3072 3072 3072 3072 3072 3072 3071 3071 3070 3070 3070 3069 3069 3069
3016 3017 3018 3018 3018 3020 3021 3022 3023 3025 3026 3027 3028 3030 3031 3033 3034 3036 3037 3039 3040 3041 3043 3044 3046 3047 3048 3049 3050 3052 3053 3055 3057 3059 3060 3062 3063 3064 3065 3066 3067 3067 3067 3068 3068 3069 3069 3070 3070 3070 3071 3071 3071 3070 3070 3070 3071 3071 3071 3070 3070 3070 3069 3069 3069 3068 3068 3068 3068
3016 3017 3017 3018 3018 3019 3020 3021 3022 3024 3025 3026 3027 3028 3030 3031 3033 3034 3036 3037 3038 3040 3041 3043 3044 3045 3046 3047 3049 3050 3052 3054 3056 3057 3059 3060 3061 3063 3064 3065 3065 3065 3065 3066 3066 3067 3068 3068 3069 3069 3069 3069 3069 3069 3069 3069 3070 3070 3069 3069 3069 3068 3068 3067 3067 3067 3067 3067 3067
3015 3016 3016 3017 3017 3018 3019 3020 3021 3022 3023 3025 3026 3027 3028 3029 3031 3033 3034 3035 3037 3038 3040 3041 3042 3043 3044 3046 3047 3049 3051 3053 3054 3056 3057 3059 3060 3061 3062 3063 3063 3063 3064 3064 3065 3065 3066 3066 3067 3067 3068 3068 3068 3067 3067 3068 3068 3068 3068 3067 3067 3067 3066 3066 3066 3066 3066 3066 3066
3014 3015 3016 3016 3017 3017 3018 3018 3020 3021 3022 3023 3024 3025 3026 3028 3030 3031 3033 3034 3035 3036 3037 3039 3040 3041 3042 3044 3046 3048 3050 3051 3053 3054 3055 3057 3058 3059 3060 3060 3061 3061 3062 3063 3063 3064 3064 3065 3065 3066 3066 3066 3066 3066 3066 3066 3066 3066 3066 3066 3065 3065 3065 3065 3065 3065 3065 3065 3065
3013 3014 3015 3015 3016 3016 3017 3017 3018 3020 3021 3022 3023 3024 3025 3026 3028 3030 3031 3032 3033 3034 3035 3036 3037 3039 3040 3043 3045 3046 3048 3049 3051 3052 3054 3055 3056 3057 3058 3059 3059 3060 3060 3061 3061 3062 3063 3063 3064 3064 3064 3064 3064 3065 3065 3065 3065 3064 3064 3064 3064 3064 3064 3064 3064 3064 3064 3064 3064
3012 3013 3014 3015 3015 3015 3015 3016 3017 3018 3020 3020 3021 3022 3024 3025 3026 3028 3029 3030 3031 3032 3033 3034 3035 3037 3039 3041 3043 3044 3046 3047 3049 3051 3052 3053 3054 3055 3056 3056 3057 3058 3059 3059 3060 3060 3061 3061 3062 3062 3062 3062 3062 3063 3063 3063 3062 3062 3062 3062 3062 3063 3063 3063 3063 3063 3063 3063 3063
3011 3012 3013 3014 3014 3014 3014 3015 3016 3017 3018 3019 3020 3021 3022 3023 3025 3026 3027 3028 3029 3030 3031 3032 3034 3035 3037 3039 3040 3042 3044 3045 3047 3049 3050 3051 3052 3053 3054 3055 3055 3056 3057 3058 3058 3059 3059 3060 3060 3060 3060 3060 3061 3061 3060 3060 3060 3060 3061 3061 3061 3061 3061 3061 3061 3061 3061 3061 3062
3009 3010 3012 3012 3013 3013 3013 3014 3015 3015 3016 3017 3019 3020 3021 3022 3023 3024 3025 3026 3027 3028 3029 3030 3032 3033 3035 3036 3038 3040 3042 3044 3045 3047 3048 3049 3050 3051 3052 3053 3054 3055 3055 3056 3056 3057 3057 3057 3058 3058 3058 3058 3058 3058 3058 3059 3059 3059 3059 3060 3060 3060 3060 3060 3060 3060 3060 3060 3060
3008 3009 3010 3011 3012 3012 3012 3013 3014 3015 3015 3016 3018 3019 3020 3020 3021 3022 3023 3024 3025 3026 3027 3028 3030 3031 3033 3035 3036 3038 3040 3042 3043 3045 3046 3047 3048 3049 3050 3051 3052 3053 3054 3054 3055 3055 3055 3055 3055 3056 3056 3056 3056 3056 3057 3057 3057 3058 3058 3058 3058 3058 3059 3059 3059 3059 3059 3059 3059
3006 3008 3009 3010 3010 3011 3011 3012 3013 3014 3015 3016 3017 3018 3019 3019 3020 3020 3021 3022 3023 3024 3025 3027 3028 3030 3031 3033 3034 3036 3038 3040 3041 3043 3044 3045 3046 3047 3048 3049 3050 3051 3052 3052 3053 3053 3053 3053 3054 3054 3054 3054 3055 3055 3055 3055 3055 3056 3056 3056 3057 3057 3057 3058 3058 3058 3058 3058 3058
3004 3006 3007 3008 3009 3010 3010 3011 3013 3013 3014 3015 3015 3016 3017 3017 3018 3019 3020 3020 3022 3023 3024 3025 3026 3028 3029 3031 3033 3034 3036 3038 3040 3041 3042 3043 3044 3045 3046 3047 3048 3049 3050 3050 3050 3051 3051 3051 3052 3052 3052 3053 3053 3053 3053 3054 3054 3054 3055 3055 3055 3056 3056 3056 3056 3056 3056 3057 3057
3002 3004 3005 3007 3008 3008 3009 3010 3011 3012 3013 3013 3014 3015 3015 3016 3017 3017 3018 3019 3020 3021 3022 3024 3025 3026 3027 3029 3031 3032 3034 3036 3037 3039 3040 3041 3043 3044 3045 3045 3046 3047 3048 3048 3049 3049 3050 3050 3050 3051 3051 3051 3051 3051 3052 3052 3052 3053 3053 3053 3054 3054 3055 3055 3055 3055 3055 3055 3055
3000 3001 3003 3005 3006 3006 3007 3007 3009 3010 3010 3011 3012 3013 3013 3014 3015 3016 3017 3018 3019 3020 3021 3022 3023 3025 3026 3027 3029 3031 3032 3034 3035 3037 3038 3040 3041 3042 3043 3044 3044 3045 3045 3046 3047 3047 3048 3049 3049 3049 3049 3049 3050 3050 3050 3050 3050 3051 3051 3052 3052 3053 3053 3053 3053 3054 3054 3054 3054